Powrót do katalogu

SL-12 DEB

LostHEO
NORAD 48540·DEBRIS·🇷🇺 Russia

Wystrzelony Mar 1, 2010 z Baikonur Cosmodrome

Loading…

Następne Przeloty (najbliższe 24 godziny)

TLE

NieaktualneSource: Space-Track

Epoka: May 1, 2023, 06:25 UTC

1 48540U 10007AS  23121.26794547  .00005129  00000-0  47433-2 0  9992
2 48540  64.4922 221.4604 5740895 353.0372   1.5403  4.32413888132808

Śledź SL-12 DEB w czasie rzeczywistym z AllMySat

Download on the App Store